Voltar ao catálogo

SHIYAN 27F

AtivoCiênciaSSO
NORAD 63604·PAYLOAD·🇨🇳 China

Lançado Apr 18, 2025 de Taiyuan Satellite Launch Center

Loading…

Próximas Passagens (próximas 24 horas)

TLE

AtualizadoSource: Space-Track

Época: Sep 14, 2026, 14:27 UTC

1 63604U 25078F   26257.60262492 -.00000017  00000-0  38841-4 0  9991
2 63604  99.6944 263.4878 0000939  91.7269 268.3977 13.57248844 69660

Acompanhe SHIYAN 27F em tempo real com AllMySat

Download on the App Store